Portada
METAR-TAF:

METAR-TAF

Aeroports :

Coober Pedy, Austràlia

latitud: 29-02-24S, longitud: 134-43-18E, altitud: 226 m

Observació

L'informe es va fer fa 44 minuts, a les 22:00 UTC
Vent 17 kt del Est
Temperatura 23°C
Humitat 22%
Pressió 1011 hPa
Visibilitat 10 km o més

METAR: YCBP 142200Z AUTO 08017KT 9999 // NCD 23/00 Q1011

Hora: 09:14 (22:44 UTC)


TAF: manca

Observacions i pronòstics meteorològics de més de 4000 aeroports (METAR i TAF).

Les estacions disponibles són els punts grocs i vermells al mapa.

Posi el ratolí al punt desitjat per veure el nom de l'estació.

Feu clic per veure les observacions i els pronòstics meteorològics.

Per canviar el mapa: feu clic els botons verds amb una creu de color negre per apropar; al botó verd amb un guió per allunyar la imatge; o en les fletxes verdes per a mapes adjacents.


METAR-TAF: